Regional Weather Roundup
Issued by NWS

Home | Current Version | Previous Version | Graphics & Text | Print | Product List | Glossary On
Versions: 1 2 3 4 5 6 7 8 9 10 11 12 13 14 15 16 17 18 19 20 21 22 23 24 25 26 27 28 29 30 31 32 33 34 35 36 37 38 39 40 41 42 43 44 45 46 47 48 49 50
000
ASUS43 KBIS 232320
RWRND

NORTH DAKOTA REGIONAL WEATHER ROUNDUP
NATIONAL WEATHER SERVICE BISMARCK ND
600 PM CDT SAT MAY 23 2015

NOTE: "FAIR" INDICATES FEW OR NO CLOUDS BELOW 12,000 FEET WITH NO
SIGNIFICANT WEATHER AND/OR OBSTRUCTIONS TO VISIBILITY.


NDZ001>003-009>011-017-240000-
NORTHWEST NORTH DAKOTA

CITY           SKY/WX    TMP DP  RH WIND       PRES   REMARKS
WILLISTON      PTSUNNY   72  36  26 SE13      30.08F
MINOT          MOSUNNY   74  35  24 VRB5      30.07F
MINOT AFB      MOSUNNY   77  40  26 S8        30.06S
$$

NDZ018>021-031>035-040>046-240000-
SOUTHWEST NORTH DAKOTA

CITY           SKY/WX    TMP DP  RH WIND       PRES   REMARKS
BISMARCK       CLOUDY    63  48  58 SE8       30.11S
DICKINSON      CLOUDY    60  45  57 E12       30.08F
GARRISON         N/A     71  42  35 SE15      30.08F
HETTINGER ARPT CLOUDY    58  46  64 E13       30.09F
$$

NDZ004>008-012>016-024-026-027-054-240000-
NORTHEAST NORTH DAKOTA

CITY           SKY/WX    TMP DP  RH WIND       PRES   REMARKS
GRAND FORKS    SUNNY     76  43  30 S8        30.08F
GRND FRKS AFB  SUNNY     75  42  30 SW12      30.09F
DEVILS LAKE    MOSUNNY   73  41  31 S9        30.08F
$$

NDZ022-023-025-028>030-036>039-047>053-240000-
SOUTHEAST NORTH DAKOTA

CITY           SKY/WX    TMP DP  RH WIND       PRES   REMARKS
FARGO          MOSUNNY   71  45  39 S14G21    30.12F
JAMESTOWN      MOSUNNY   67  47  48 S13       30.10F
$$



USA.gov is the U.S. government's official web portal to all federal, state and local government web resources and services.